Starlink 11648

operational
NORAD ID: 63313 Int'l Des: 2025-057 Owner: SPXS Country: US Constellation: starlink
LEOCIRCULAR

Starlink 11648について

説明を読み込み中...

リアルタイム位置

3D地球を読み込み中...

次回通過

高度履歴

Altitude vs Time

uPlot chart will show altitude changes over time

軌道要素

1 63313U 25057G 25258.31596233 .00442989 00000-0 32542-2 0 9993
2 63313 43.0009 241.8233 0002945 279.5224 80.5310 15.70993757 29593
Epoch: Sep 15, 2025 • Age: 37 hours

現在のステータス

高度 354.8 km
速度 7.70 km/s
衛星直下点 -13.87°S, 116.07°E
打ち上げ日 Mar 18, 2025
運用期間 0.4 years
タイプ internet

技術仕様

分類 Payload
質量 960.00 kg
乾燥質量 910.00 kg
総質量 960.00 kg
長さ 0.30 m
直径 4.10 m
スパン 29.00 m
形状 Box + pan
製造者 SPXS
バスタイプ Starlink V2MD
フェーズステータス In Orbit
所有者/国 SPXS/US

大規模コンステレーション

Loading constellations...